[[{"header":{"parameterUnit":"m.s-1","parameterCategory":1,"la1":30.2992,"la2":30.254,"lo1":-89.0895,"lo2":-89.0443,"dy":0.0025,"dx":0.0025,"nx":19,"ny":19,"refTime":"2026-05-02T21:00:00:Z","depth":0,"parameterNumber":2,"parameterNumberName":"U-component_of_WINDS"},"data":[0,0,0,-1.8246,-1.8246,-1.8275,-1.8275,-1.8315,-1.8315,0,0,0,0,0,0,0,0,0,0,0,-1.824,-1.8241,-1.8246,-1.8247,-1.8275,-1.8275,-1.8315,-1.8315,0,0,0,0,0,0,0,0,0,0,0,-1.824,-1.824,-1.8241,-1.8247,-1.8275,-1.8275,-1.8315,-1.8292,0,0,0,0,0,0,0,0,0,0,-1.8264,-1.8262,-1.824,-1.8241,-1.8247,-1.8275,-1.8275,-1.8291,-1.8293,-1.8304,0,-1.8315,0,-1.8316,-1.8318,-1.8319,0,0,0,-1.8244,-1.8259,-1.8265,-1.8241,-1.8247,-1.8275,-1.8261,-1.8292,-1.8295,-1.8308,-1.8315,-1.8317,-1.8317,-1.8319,-1.8319,-1.8389,-1.839,0,0,-1.8243,-1.8247,-1.8263,-1.8267,-1.8263,-1.826,-1.8262,-1.8294,-1.8302,-1.8315,-1.8318,-1.8317,-1.8319,-1.8319,-1.8389,-1.8389,0,0,0,-1.824,-1.8246,-1.825,-1.8265,-1.827,-1.8261,-1.8263,-1.8301,-1.8302,-1.8318,-1.8318,-1.8319,-1.832,-1.8388,-1.8389,-1.8414,0,0,0,-1.8239,-1.8244,-1.8249,-1.8252,-1.8269,-1.8286,-1.827,-1.83,-1.8303,-1.8317,-1.8319,-1.832,-1.8388,-1.8389,-1.8412,-1.8424,0,0,0,-1.8237,-1.8244,-1.8249,-1.8252,-1.8264,-1.8285,-1.8288,-1.83,-1.8303,-1.8319,-1.832,-1.8388,-1.8389,-1.8411,-1.8422,-1.8444,0,0,0,-1.8237,-1.827,-1.8249,-1.8286,-1.8264,-1.8301,-1.8288,-1.8315,-1.8331,-1.832,-1.8388,-1.8389,-1.841,-1.842,-1.8442,-1.8462,-1.8471,0,0,-1.8281,-1.8275,-1.8297,-1.8279,-1.832,-1.8296,-1.8341,-1.8352,-1.835,-1.8376,-1.8378,-1.8413,-1.8422,-1.8443,-1.8522,-1.8529,0,0,0,-1.8312,-1.8328,-1.8338,-1.8354,-1.8364,-1.8373,-1.8377,-1.8381,-1.8404,-1.8364,-1.8427,-1.8432,-1.8445,-1.8454,-1.846,-1.847,-1.8394,-1.8394,-1.8394,-1.8379,-1.8375,-1.841,-1.841,-1.8426,-1.843,-1.8443,-1.8449,-1.844,-1.8455,-1.8463,-1.8511,-1.8522,-1.8526,-1.8537,-1.8474,-1.8474,-1.8474,-1.8474,-1.8442,-1.8463,-1.8452,-1.8482,-1.8478,-1.8503,-1.8509,-1.8502,-1.8525,-1.8505,-1.8515,-1.8493,-1.8534,-1.8543,-1.8476,-1.8476,-1.8475,-1.8475,-1.8475,-1.8484,-1.8493,-1.8499,-1.8522,-1.854,-1.854,-1.8562,-1.8558,-1.8554,-1.8565,-1.8572,-1.8571,-1.857,-1.8569,-1.8569,-1.8569,-1.8569,-1.8569,-1.857,-1.8525,-1.853,-1.855,-1.8564,-1.8574,-1.8587,-1.8593,-1.8603,-1.8612,-1.8607,-1.8607,-1.8597,-1.854,-1.8525,-1.8572,-1.8572,-1.8571,-1.8571,-1.8571,-1.8588,-1.8573,-1.8604,-1.8614,-1.8631,-1.865,-1.8645,-1.8665,-1.8673,-1.8684,-1.8672,-1.8631,-1.8624,-1.862,-1.8607,-1.8673,-1.8673,-1.8673,-1.8673,-1.8623,-1.862,-1.865,-1.8667,-1.8683,-1.8682,-1.8717,-1.8722,-1.8725,-1.873,-1.872,-1.8704,-1.8699,-1.8696,-1.8689,-1.8677,-1.876,-1.876,-1.876,-1.8661,-1.866,-1.869,-1.8693,-1.8706,-1.8718,-1.875,-1.877,-1.8771,-1.8763,-1.8733,-1.873,-1.8703,-1.8695,-1.8685,-1.8675,-1.8653,0,0]},{"header":{"parameterUnit":"m.s-1","parameterCategory":1,"la1":30.2992,"la2":30.254,"lo1":-89.0895,"lo2":-89.0443,"dy":0.0025,"dx":0.0025,"nx":19,"ny":19,"refTime":"2026-05-02T21:00:00:Z","depth":0,"parameterNumber":3,"parameterNumberName":"V-component_of_WINDS"},"data":[0,0,0,1.1941,1.1939,1.186,1.1859,1.1765,1.1764,0,0,0,0,0,0,0,0,0,0,0,1.197,1.197,1.1941,1.1939,1.186,1.1859,1.1765,1.1764,0,0,0,0,0,0,0,0,0,0,0,1.197,1.197,1.1969,1.1939,1.186,1.1859,1.1765,1.1822,0,0,0,0,0,0,0,0,0,0,1.1898,1.1931,1.197,1.1969,1.1938,1.186,1.1859,1.1824,1.1818,1.1804,0,1.1795,0,1.1778,1.1758,1.1758,0,0,0,1.1934,1.1936,1.191,1.1969,1.1938,1.186,1.1894,1.1821,1.1814,1.1796,1.1793,1.1789,1.1776,1.1758,1.1757,1.1697,1.1697,0,0,1.1938,1.1958,1.1915,1.1906,1.192,1.1897,1.1892,1.1817,1.1814,1.1793,1.1787,1.1775,1.1757,1.1756,1.1697,1.1697,0,0,0,1.1954,1.1962,1.1937,1.191,1.1895,1.1894,1.1889,1.1817,1.1808,1.1786,1.1774,1.1757,1.1755,1.1697,1.1697,1.1715,0,0,0,1.1957,1.1971,1.1939,1.195,1.1897,1.1856,1.1891,1.1813,1.1804,1.1774,1.1757,1.1755,1.1697,1.1697,1.1715,1.172,0,0,0,1.1973,1.1973,1.1964,1.1952,1.1919,1.1856,1.1842,1.1811,1.1797,1.1758,1.1754,1.1697,1.1697,1.1714,1.172,1.1711,0,0,0,1.1996,1.1979,1.1964,1.1941,1.1919,1.1869,1.1842,1.1803,1.1772,1.1756,1.1697,1.1697,1.1714,1.1719,1.1711,1.1707,1.1708,0,0,1.1986,1.1979,1.1964,1.1948,1.1906,1.1879,1.1839,1.179,1.1767,1.1721,1.1719,1.1715,1.1719,1.1711,1.1704,1.1705,0,0,0,1.1968,1.1957,1.1942,1.1914,1.1878,1.1847,1.1803,1.1785,1.1746,1.1748,1.1709,1.1711,1.1705,1.1702,1.1703,1.1696,1.1697,1.1697,1.1697,1.1982,1.1956,1.1929,1.1893,1.1866,1.1822,1.1797,1.1765,1.1744,1.1735,1.1721,1.1721,1.1719,1.1719,1.1713,1.1717,1.1717,1.1718,1.1718,1.1966,1.1947,1.1922,1.1887,1.1858,1.1827,1.1784,1.177,1.1737,1.1729,1.1722,1.1717,1.1721,1.1714,1.1719,1.1718,1.1718,1.1718,1.1718,1.1973,1.1959,1.1939,1.1898,1.1868,1.1831,1.1801,1.1775,1.1751,1.1744,1.1727,1.1726,1.1723,1.1738,1.1738,1.1738,1.1738,1.1738,1.1738,1.1988,1.1965,1.1944,1.1906,1.1885,1.1855,1.181,1.1789,1.1758,1.1741,1.1741,1.1721,1.1727,1.1729,1.1738,1.1738,1.1738,1.1738,1.1738,1.1982,1.198,1.1947,1.1927,1.188,1.1853,1.1821,1.1779,1.1757,1.1743,1.1725,1.1734,1.1723,1.1723,1.1724,1.1731,1.1731,1.1731,1.1731,1.1988,1.1981,1.1943,1.1912,1.1879,1.1847,1.181,1.1775,1.1739,1.1723,1.1718,1.1718,1.1719,1.1708,1.1708,1.1709,1.1712,1.1712,1.1712,1.1983,1.1972,1.1946,1.1912,1.1874,1.1841,1.1805,1.177,1.1727,1.171,1.1711,1.1711,1.1711,1.1712,1.1695,1.1695,1.1696,0,0]}]]